| time (UTC) | temp F | wind direction | speed MPH | gust MPH | rain 1hr in | rain 24hr in | rain mn in | humidity % | barometer mb |
| 20260510120103 | 58 | 77 | 2.0 | 6.0 | 0.00 | 0.00 | 0.00 | 70 | 1022.0 |
| 20260510115603 | 58 | 77 | 2.0 | 6.0 | 0.00 | 0.00 | 0.00 | 70 | 1022.0 |
| 20260510115103 | 58 | 77 | 2.0 | 6.0 | 0.00 | 0.00 | 0.00 | 70 | 1022.0 |
| 20260510114603 | 58 | 77 | 2.0 | 6.0 | 0.00 | 0.00 | 0.00 | 70 | 1021.9 |
| 20260510113604 | 58 | 77 | 2.0 | 6.0 | 0.00 | 0.00 | 0.00 | 71 | 1021.8 |
| 20260510113103 | 58 | 77 | 2.0 | 6.0 | 0.00 | 0.00 | 0.00 | 71 | 1021.9 |
| 20260510112603 | 58 | 77 | 2.0 | 6.0 | 0.00 | 0.00 | 0.00 | 70 | 1021.8 |
| 20260510112104 | 58 | 77 | 2.0 | 6.0 | 0.00 | 0.00 | 0.00 | 70 | 1021.8 |
| 20260510111103 | 58 | 77 | 2.0 | 6.0 | 0.00 | 0.00 | 0.00 | 70 | 1021.8 |
| 20260510110604 | 59 | 77 | 2.0 | 6.0 | 0.00 | 0.00 | 0.00 | 70 | 1021.8 |
| 20260510110104 | 59 | 77 | 2.0 | 6.0 | 0.00 | 0.00 | 0.00 | 69 | 1021.8 |
| 20260510105603 | 59 | 77 | 2.0 | 6.0 | 0.00 | 0.00 | 0.00 | 68 | 1021.7 |
| 20260510104603 | 60 | 77 | 2.0 | 6.0 | 0.00 | 0.00 | 0.00 | 68 | 1021.6 |
| 20260510104103 | 60 | 77 | 2.0 | 6.0 | 0.00 | 0.00 | 0.00 | 66 | 1021.6 |
| 20260510103603 | 60 | 77 | 2.0 | 6.0 | 0.00 | 0.00 | 0.00 | 65 | 1021.5 |
| 20260510103103 | 60 | 77 | 2.0 | 6.0 | 0.00 | 0.00 | 0.00 | 66 | 1021.5 |
| 20260510102604 | 60 | 77 | 2.0 | 6.0 | 0.00 | 0.00 | 0.00 | 66 | 1021.5 |
| 20260510101603 | 60 | 77 | 2.0 | 6.0 | 0.00 | 0.00 | 0.00 | 66 | 1021.4 |
| 20260510101103 | 60 | 77 | 2.0 | 6.0 | 0.00 | 0.00 | 0.00 | 66 | 1021.4 |
| 20260510100603 | 60 | 77 | 2.0 | 6.0 | 0.00 | 0.00 | 0.00 | 66 | 1021.4 |
| 20260510095603 | 60 | 77 | 2.0 | 6.0 | 0.00 | 0.00 | 0.00 | 67 | 1021.4 |
| 20260510095103 | 61 | 77 | 2.0 | 6.0 | 0.00 | 0.00 | 0.00 | 66 | 1021.3 |
| 20260510094603 | 61 | 77 | 2.0 | 6.0 | 0.00 | 0.00 | 0.00 | 65 | 1021.3 |
| 20260510094103 | 61 | 77 | 2.0 | 6.0 | 0.00 | 0.00 | 0.00 | 65 | 1021.3 |
| 20260510093603 | 61 | 77 | 2.0 | 6.0 | 0.00 | 0.00 | 0.00 | 65 | 1021.3 |
| 20260510092603 | 61 | 77 | 2.0 | 6.0 | 0.00 | 0.00 | 0.00 | 65 | 1021.2 |
| 20260510092103 | 61 | 77 | 2.0 | 6.0 | 0.00 | 0.00 | 0.00 | 66 | 1021.2 |
| 20260510091604 | 61 | 77 | 2.0 | 6.0 | 0.00 | 0.00 | 0.00 | 65 | 1021.3 |
| 20260510091103 | 62 | 77 | 2.0 | 6.0 | 0.00 | 0.00 | 0.00 | 65 | 1021.3 |
| 20260510085603 | 63 | 77 | 2.0 | 6.0 | 0.00 | 0.00 | 0.00 | 62 | 1021.3 |
| 20260510085104 | 63 | 77 | 2.0 | 6.0 | 0.00 | 0.00 | 0.00 | 62 | 1021.3 |
| 20260510084603 | 63 | 77 | 2.0 | 6.0 | 0.00 | 0.00 | 0.00 | 62 | 1021.4 |
| 20260510084103 | 63 | 77 | 2.0 | 6.0 | 0.00 | 0.00 | 0.00 | 62 | 1021.4 |
| 20260510083603 | 63 | 77 | 2.0 | 6.0 | 0.00 | 0.00 | 0.00 | 62 | 1021.5 |
| 20260510083104 | 63 | 77 | 2.0 | 6.0 | 0.00 | 0.00 | 0.00 | 62 | 1021.5 |
| 20260510082103 | 63 | 77 | 2.0 | 6.0 | 0.00 | 0.00 | 0.00 | 62 | 1021.7 |
| 20260510081604 | 63 | 77 | 2.0 | 6.0 | 0.00 | 0.00 | 0.00 | 61 | 1021.7 |
| 20260510081103 | 63 | 77 | 2.0 | 6.0 | 0.00 | 0.00 | 0.00 | 62 | 1021.8 |
| 20260510080604 | 63 | 77 | 2.0 | 6.0 | 0.00 | 0.00 | 0.00 | 62 | 1021.8 |
| 20260510080103 | 64 | 77 | 2.0 | 6.0 | 0.00 | 0.00 | 0.00 | 62 | 1021.8 |
| 20260510075604 | 64 | 77 | 2.0 | 6.0 | 0.00 | 0.00 | 0.00 | 61 | 1021.9 |
| 20260510075103 | 64 | 77 | 2.0 | 6.0 | 0.00 | 0.00 | 0.00 | 61 | 1021.8 |
| 20260510074603 | 64 | 77 | 2.0 | 6.0 | 0.00 | 0.00 | 0.00 | 60 | 1021.8 |
| 20260510073604 | 65 | 77 | 2.0 | 6.0 | 0.00 | 0.00 | 0.00 | 59 | 1021.9 |
| 20260510073103 | 65 | 77 | 2.0 | 6.0 | 0.00 | 0.00 | 0.00 | 59 | 1021.9 |
| 20260510072603 | 65 | 77 | 2.0 | 6.0 | 0.00 | 0.00 | 0.00 | 58 | 1021.9 |
| 20260510071603 | 65 | 77 | 2.0 | 6.0 | 0.00 | 0.00 | 0.00 | 58 | 1021.9 |
| 20260510071104 | 65 | 77 | 2.0 | 6.0 | 0.00 | 0.00 | 0.00 | 59 | 1021.9 |
| 20260510070603 | 65 | 77 | 2.0 | 6.0 | 0.00 | 0.00 | 0.00 | 59 | 1021.9 |
| 20260510070103 | 66 | 77 | 2.0 | 6.0 | 0.00 | 0.00 | 0.00 | 57 | 1021.9 |
| 20260510065603 | 66 | 77 | 2.0 | 6.0 | 0.00 | 0.00 | 0.00 | 57 | 1021.9 |
| 20260510065103 | 66 | 77 | 2.0 | 6.0 | 0.00 | 0.00 | 0.00 | 56 | 1021.9 |
| 20260510064603 | 66 | 77 | 2.0 | 6.0 | 0.00 | 0.00 | 0.00 | 58 | 1021.9 |
| 20260510064103 | 66 | 77 | 2.0 | 6.0 | 0.00 | 0.00 | 0.00 | 58 | 1021.9 |
| 20260510063603 | 67 | 77 | 2.0 | 6.0 | 0.00 | 0.00 | 0.00 | 56 | 1021.9 |
| 20260510063104 | 67 | 77 | 2.0 | 6.0 | 0.00 | 0.00 | 0.00 | 55 | 1021.8 |
| 20260510062603 | 67 | 77 | 2.0 | 6.0 | 0.00 | 0.00 | 0.00 | 55 | 1021.8 |
| 20260510061103 | 66 | 77 | 2.0 | 6.0 | 0.00 | 0.00 | 0.00 | 57 | 1021.9 |
| 20260510060603 | 67 | 77 | 2.0 | 6.0 | 0.00 | 0.00 | 0.00 | 58 | 1022.1 |
| 20260510060104 | 67 | 77 | 2.0 | 6.0 | 0.00 | 0.00 | 0.00 | 57 | 1022.0 |
| 20260510055603 | 67 | 77 | 2.0 | 6.0 | 0.00 | 0.00 | 0.00 | 56 | 1022.0 |
| 20260510055103 | 67 | 77 | 2.0 | 6.0 | 0.00 | 0.00 | 0.00 | 56 | 1021.9 |
| 20260510054603 | 68 | 77 | 2.0 | 6.0 | 0.00 | 0.00 | 0.00 | 56 | 1022.0 |
| 20260510054104 | 68 | 77 | 2.0 | 6.0 | 0.00 | 0.00 | 0.00 | 54 | 1022.0 |
| 20260510053103 | 68 | 77 | 2.0 | 6.0 | 0.00 | 0.00 | 0.00 | 54 | 1022.1 |
| 20260510052603 | 68 | 77 | 2.0 | 6.0 | 0.00 | 0.00 | 0.00 | 55 | 1022.1 |
| 20260510052103 | 68 | 77 | 2.0 | 6.0 | 0.00 | 0.00 | 0.00 | 56 | 1022.0 |
| 20260510051104 | 67 | 77 | 2.0 | 6.0 | 0.00 | 0.00 | 0.00 | 57 | 1022.1 |
| 20260510050602 | 68 | 77 | 2.0 | 6.0 | 0.00 | 0.00 | 0.00 | 56 | 1022.1 |
| 20260510050103 | 69 | 77 | 2.0 | 6.0 | 0.00 | 0.00 | 0.00 | 53 | 1022.1 |
| 20260510045603 | 69 | 77 | 2.0 | 6.0 | 0.00 | 0.00 | 0.00 | 53 | 1022.0 |
| 20260510045104 | 70 | 77 | 2.0 | 6.0 | 0.00 | 0.00 | 0.00 | 52 | 1021.9 |
| 20260510044603 | 70 | 77 | 2.0 | 6.0 | 0.00 | 0.00 | 0.00 | 49 | 1021.9 |
| 20260510044104 | 70 | 77 | 2.0 | 6.0 | 0.00 | 0.00 | 0.00 | 49 | 1021.9 |
| 20260510043603 | 70 | 77 | 2.0 | 6.0 | 0.00 | 0.00 | 0.00 | 49 | 1021.9 |
| 20260510043103 | 70 | 77 | 2.0 | 6.0 | 0.00 | 0.00 | 0.00 | 49 | 1021.9 |
| 20260510042604 | 70 | 77 | 2.0 | 6.0 | 0.00 | 0.00 | 0.00 | 49 | 1021.8 |
| 20260510041603 | 70 | 77 | 2.0 | 6.0 | 0.00 | 0.00 | 0.00 | 49 | 1021.7 |
| 20260510041103 | 71 | 77 | 2.0 | 6.0 | 0.00 | 0.00 | 0.00 | 49 | 1021.7 |
| 20260510040603 | 71 | 77 | 2.0 | 6.0 | 0.00 | 0.00 | 0.00 | 48 | 1021.7 |
| 20260510035603 | 71 | 77 | 2.0 | 6.0 | 0.00 | 0.00 | 0.00 | 47 | 1021.5 |
| 20260510035103 | 72 | 77 | 2.0 | 6.0 | 0.00 | 0.00 | 0.00 | 47 | 1021.5 |
| 20260510034104 | 72 | 77 | 2.0 | 6.0 | 0.00 | 0.00 | 0.00 | 47 | 1021.4 |
| 20260510033603 | 72 | 77 | 2.0 | 6.0 | 0.00 | 0.00 | 0.00 | 47 | 1021.4 |
| 20260510033103 | 72 | 77 | 2.0 | 6.0 | 0.00 | 0.00 | 0.00 | 47 | 1021.3 |
| 20260510032603 | 72 | 77 | 2.0 | 6.0 | 0.00 | 0.00 | 0.00 | 46 | 1021.1 |
| 20260510032103 | 72 | 77 | 2.0 | 6.0 | 0.00 | 0.00 | 0.00 | 46 | 1021.1 |
| 20260510031603 | 72 | 77 | 2.0 | 6.0 | 0.00 | 0.00 | 0.00 | 46 | 1021.1 |
| 20260510031103 | 73 | 77 | 2.0 | 6.0 | 0.00 | 0.00 | 0.00 | 46 | 1021.0 |
| 20260510030603 | 73 | 77 | 2.0 | 6.0 | 0.00 | 0.00 | 0.00 | 45 | 1021.0 |
| 20260510030103 | 73 | 77 | 2.0 | 6.0 | 0.00 | 0.00 | 0.00 | 45 | 1021.0 |
| 20260510025603 | 73 | 77 | 2.0 | 6.0 | 0.00 | 0.00 | 0.00 | 44 | 1020.9 |
| 20260510025103 | 73 | 77 | 2.0 | 6.0 | 0.00 | 0.00 | 0.00 | 44 | 1020.9 |
| 20260510024103 | 74 | 77 | 2.0 | 6.0 | 0.00 | 0.00 | 0.00 | 44 | 1020.8 |
| 20260510023603 | 74 | 77 | 2.0 | 6.0 | 0.00 | 0.00 | 0.00 | 43 | 1020.7 |
| 20260510023103 | 74 | 77 | 2.0 | 6.0 | 0.00 | 0.00 | 0.00 | 43 | 1020.7 |
| 20260510022104 | 75 | 77 | 2.0 | 6.0 | 0.00 | 0.00 | 0.00 | 43 | 1020.4 |
| 20260510021603 | 75 | 77 | 2.0 | 6.0 | 0.00 | 0.00 | 0.00 | 42 | 1020.4 |
| 20260510021103 | 76 | 77 | 2.0 | 6.0 | 0.00 | 0.00 | 0.00 | 42 | 1020.3 |
| 20260510020603 | 76 | 77 | 2.0 | 6.0 | 0.00 | 0.00 | 0.00 | 41 | 1020.2 |
| 20260510015604 | 76 | 77 | 2.0 | 6.0 | 0.00 | 0.00 | 0.00 | 41 | 1020.1 |
| 20260510015103 | 77 | 77 | 2.0 | 6.0 | 0.00 | 0.00 | 0.00 | 41 | 1020.0 |
| 20260510014604 | 77 | 77 | 2.0 | 6.0 | 0.00 | 0.00 | 0.00 | 41 | 1019.9 |
| 20260510014104 | 77 | 77 | 2.0 | 6.0 | 0.00 | 0.00 | 0.00 | 41 | 1019.9 |
| 20260510013603 | 78 | 77 | 2.0 | 6.0 | 0.00 | 0.00 | 0.00 | 40 | 1019.8 |
| 20260510013104 | 79 | 77 | 2.0 | 6.0 | 0.00 | 0.00 | 0.00 | 39 | 1019.8 |
| 20260510012103 | 79 | 77 | 2.0 | 6.0 | 0.00 | 0.00 | 0.00 | 38 | 1019.6 |
| 20260510011603 | 79 | 77 | 2.0 | 6.0 | 0.00 | 0.00 | 0.00 | 38 | 1019.5 |
| 20260510011103 | 80 | 77 | 2.0 | 6.0 | 0.00 | 0.00 | 0.00 | 38 | 1019.5 |
| 20260510010603 | 80 | 77 | 2.0 | 6.0 | 0.00 | 0.00 | 0.00 | 38 | 1019.4 |
| 20260510005603 | 80 | 77 | 2.0 | 6.0 | 0.00 | 0.00 | 0.00 | 37 | 1019.4 |
| 20260510005103 | 81 | 77 | 2.0 | 6.0 | 0.00 | 0.00 | 0.00 | 37 | 1019.3 |
| 20260510004603 | 81 | 77 | 2.0 | 6.0 | 0.00 | 0.00 | 0.00 | 36 | 1019.3 |
| 20260510004104 | 81 | 77 | 2.0 | 6.0 | 0.00 | 0.00 | 0.00 | 36 | 1019.2 |
| 20260510003604 | 81 | 77 | 2.0 | 6.0 | 0.00 | 0.00 | 0.00 | 36 | 1019.2 |
| 20260510003103 | 81 | 77 | 2.0 | 6.0 | 0.00 | 0.00 | 0.00 | 41 | 1019.4 |
| 20260510002603 | 69 | 77 | 2.0 | 6.0 | 0.00 | 0.00 | 0.00 | 52 | 1021.7 |
| 20260510002103 | 69 | 77 | 2.0 | 6.0 | 0.00 | 0.00 | 0.00 | 52 | 1021.7 |
| 20260510001604 | 69 | 77 | 2.0 | 6.0 | 0.00 | 0.00 | 0.00 | 52 | 1021.7 |
| 20260510001103 | 69 | 77 | 2.0 | 6.0 | 0.00 | 0.00 | 0.00 | 52 | 1021.7 |
| 20260510000103 | 69 | 77 | 2.0 | 6.0 | 0.00 | 0.00 | 0.00 | 52 | 1021.7 |
| 20260509235603 | 69 | 77 | 2.0 | 6.0 | 0.00 | 0.00 | 0.00 | 52 | 1021.7 |
| 20260509235103 | 69 | 77 | 2.0 | 6.0 | 0.00 | 0.00 | 0.00 | 52 | 1021.7 |
| 20260509234603 | 69 | 77 | 2.0 | 6.0 | 0.00 | 0.00 | 0.00 | 52 | 1021.7 |
| 20260509234104 | 69 | 77 | 2.0 | 6.0 | 0.00 | 0.00 | 0.00 | 52 | 1021.7 |
| 20260509233603 | 69 | 77 | 2.0 | 6.0 | 0.00 | 0.00 | 0.00 | 52 | 1021.7 |
| 20260509233104 | 69 | 77 | 2.0 | 6.0 | 0.00 | 0.00 | 0.00 | 52 | 1021.7 |
| 20260509232604 | 69 | 77 | 2.0 | 6.0 | 0.00 | 0.00 | 0.00 | 52 | 1021.7 |
| 20260509232103 | 69 | 77 | 2.0 | 6.0 | 0.00 | 0.00 | 0.00 | 52 | 1021.7 |
| 20260509231604 | 69 | 77 | 2.0 | 6.0 | 0.00 | 0.00 | 0.00 | 52 | 1021.7 |
| 20260509231103 | 69 | 77 | 2.0 | 6.0 | 0.00 | 0.00 | 0.00 | 52 | 1021.7 |
| 20260509230604 | 69 | 77 | 2.0 | 6.0 | 0.00 | 0.00 | 0.00 | 52 | 1021.7 |
| 20260509230104 | 69 | 77 | 2.0 | 6.0 | 0.00 | 0.00 | 0.00 | 52 | 1021.7 |
| 20260509225603 | 69 | 77 | 2.0 | 6.0 | 0.00 | 0.00 | 0.00 | 52 | 1021.7 |
| 20260509224603 | 69 | 77 | 2.0 | 6.0 | 0.00 | 0.00 | 0.00 | 52 | 1021.7 |
| 20260509224103 | 69 | 77 | 2.0 | 6.0 | 0.00 | 0.00 | 0.00 | 52 | 1021.7 |
| 20260509223103 | 69 | 77 | 2.0 | 6.0 | 0.00 | 0.00 | 0.00 | 52 | 1021.7 |
| 20260509222603 | 69 | 77 | 2.0 | 6.0 | 0.00 | 0.00 | 0.00 | 52 | 1021.7 |
| 20260509222103 | 69 | 77 | 2.0 | 6.0 | 0.00 | 0.00 | 0.00 | 52 | 1021.7 |
| 20260509221603 | 69 | 77 | 2.0 | 6.0 | 0.00 | 0.00 | 0.00 | 52 | 1021.7 |
| 20260509221104 | 69 | 77 | 2.0 | 6.0 | 0.00 | 0.00 | 0.00 | 52 | 1021.7 |
| 20260509220604 | 69 | 77 | 2.0 | 6.0 | 0.00 | 0.00 | 0.00 | 52 | 1021.7 |
| 20260509220104 | 69 | 77 | 2.0 | 6.0 | 0.00 | 0.00 | 0.00 | 52 | 1021.7 |
| 20260509215103 | 69 | 77 | 2.0 | 6.0 | 0.00 | 0.00 | 0.00 | 52 | 1021.7 |
| 20260509214603 | 69 | 77 | 2.0 | 6.0 | 0.00 | 0.00 | 0.00 | 52 | 1021.7 |
| 20260509213603 | 69 | 77 | 2.0 | 6.0 | 0.00 | 0.00 | 0.00 | 52 | 1021.7 |
| 20260509213103 | 69 | 77 | 2.0 | 6.0 | 0.00 | 0.00 | 0.00 | 52 | 1021.7 |
| 20260509212603 | 69 | 77 | 2.0 | 6.0 | 0.00 | 0.00 | 0.00 | 52 | 1021.7 |
| 20260509212104 | 69 | 77 | 2.0 | 6.0 | 0.00 | 0.00 | 0.00 | 52 | 1021.7 |
| 20260509211603 | 69 | 77 | 2.0 | 6.0 | 0.00 | 0.00 | 0.00 | 52 | 1021.7 |
| 20260509211103 | 69 | 77 | 2.0 | 6.0 | 0.00 | 0.00 | 0.00 | 52 | 1021.7 |
| 20260509210603 | 69 | 77 | 2.0 | 6.0 | 0.00 | 0.00 | 0.00 | 52 | 1021.7 |
| 20260509210103 | 69 | 77 | 2.0 | 6.0 | 0.00 | 0.00 | 0.00 | 52 | 1021.7 |
| 20260509205603 | 69 | 77 | 2.0 | 6.0 | 0.00 | 0.00 | 0.00 | 52 | 1021.7 |
| 20260509205103 | 69 | 77 | 2.0 | 6.0 | 0.00 | 0.00 | 0.00 | 52 | 1021.7 |
| 20260509204603 | 69 | 77 | 2.0 | 6.0 | 0.00 | 0.00 | 0.00 | 52 | 1021.7 |
| 20260509204103 | 69 | 77 | 2.0 | 6.0 | 0.00 | 0.00 | 0.00 | 52 | 1021.7 |
| 20260509203603 | 69 | 77 | 2.0 | 6.0 | 0.00 | 0.00 | 0.00 | 52 | 1021.7 |
| 20260509203103 | 69 | 77 | 2.0 | 6.0 | 0.00 | 0.00 | 0.00 | 52 | 1021.7 |
| 20260509202603 | 69 | 77 | 2.0 | 6.0 | 0.00 | 0.00 | 0.00 | 52 | 1021.7 |
| 20260509202104 | 69 | 77 | 2.0 | 6.0 | 0.00 | 0.00 | 0.00 | 52 | 1021.7 |
| 20260509201604 | 69 | 77 | 2.0 | 6.0 | 0.00 | 0.00 | 0.00 | 52 | 1021.7 |
| 20260509201103 | 69 | 77 | 2.0 | 6.0 | 0.00 | 0.00 | 0.00 | 52 | 1021.7 |
| 20260509200603 | 69 | 77 | 2.0 | 6.0 | 0.00 | 0.00 | 0.00 | 52 | 1021.7 |
| 20260509200103 | 69 | 77 | 2.0 | 6.0 | 0.00 | 0.00 | 0.00 | 52 | 1021.7 |
| 20260509195604 | 69 | 77 | 2.0 | 6.0 | 0.00 | 0.00 | 0.00 | 52 | 1021.7 |
| 20260509195103 | 69 | 77 | 2.0 | 6.0 | 0.00 | 0.00 | 0.00 | 52 | 1021.7 |
| 20260509194603 | 69 | 77 | 2.0 | 6.0 | 0.00 | 0.00 | 0.00 | 52 | 1021.7 |
| 20260509193103 | 69 | 77 | 2.0 | 6.0 | 0.00 | 0.00 | 0.00 | 52 | 1021.7 |
| 20260509192603 | 69 | 77 | 2.0 | 6.0 | 0.00 | 0.00 | 0.00 | 52 | 1021.7 |
| 20260509192103 | 69 | 77 | 2.0 | 6.0 | 0.00 | 0.00 | 0.00 | 52 | 1021.7 |
| 20260509191604 | 69 | 77 | 2.0 | 6.0 | 0.00 | 0.00 | 0.00 | 52 | 1021.7 |
| 20260509191104 | 69 | 77 | 2.0 | 6.0 | 0.00 | 0.00 | 0.00 | 52 | 1021.7 |
| 20260509190603 | 69 | 77 | 2.0 | 6.0 | 0.00 | 0.00 | 0.00 | 52 | 1021.7 |
| 20260509190103 | 69 | 77 | 2.0 | 6.0 | 0.00 | 0.00 | 0.00 | 52 | 1021.7 |
| 20260509184603 | 69 | 77 | 2.0 | 6.0 | 0.00 | 0.00 | 0.00 | 52 | 1021.7 |
| 20260509184103 | 69 | 77 | 2.0 | 6.0 | 0.00 | 0.00 | 0.00 | 52 | 1021.7 |
| 20260509183603 | 69 | 77 | 2.0 | 6.0 | 0.00 | 0.00 | 0.00 | 52 | 1021.7 |
| 20260509183104 | 69 | 77 | 2.0 | 6.0 | 0.00 | 0.00 | 0.00 | 52 | 1021.7 |
| 20260509182603 | 69 | 77 | 2.0 | 6.0 | 0.00 | 0.00 | 0.00 | 52 | 1021.7 |
| 20260509182103 | 69 | 77 | 2.0 | 6.0 | 0.00 | 0.00 | 0.00 | 52 | 1021.7 |
| 20260509181603 | 69 | 77 | 2.0 | 6.0 | 0.00 | 0.00 | 0.00 | 52 | 1021.7 |
| 20260509181103 | 69 | 77 | 2.0 | 6.0 | 0.00 | 0.00 | 0.00 | 52 | 1021.7 |
| 20260509180604 | 69 | 77 | 2.0 | 6.0 | 0.00 | 0.00 | 0.00 | 52 | 1021.7 |
| 20260509180104 | 69 | 77 | 2.0 | 6.0 | 0.00 | 0.00 | 0.00 | 52 | 1021.7 |
| 20260509175604 | 69 | 77 | 2.0 | 6.0 | 0.00 | 0.00 | 0.00 | 52 | 1021.7 |
| 20260509175104 | 69 | 77 | 2.0 | 6.0 | 0.00 | 0.00 | 0.00 | 52 | 1021.7 |
| 20260509174603 | 69 | 77 | 2.0 | 6.0 | 0.00 | 0.00 | 0.00 | 52 | 1021.7 |
| 20260509173603 | 69 | 77 | 2.0 | 6.0 | 0.00 | 0.00 | 0.00 | 52 | 1021.7 |
| 20260509173103 | 69 | 77 | 2.0 | 6.0 | 0.00 | 0.00 | 0.00 | 52 | 1021.7 |
| 20260509172604 | 69 | 77 | 2.0 | 6.0 | 0.00 | 0.00 | 0.00 | 52 | 1021.7 |
| 20260509172104 | 69 | 77 | 2.0 | 6.0 | 0.00 | 0.00 | 0.00 | 52 | 1021.7 |
| 20260509171604 | 69 | 77 | 2.0 | 6.0 | 0.00 | 0.00 | 0.00 | 52 | 1021.7 |
| 20260509171104 | 69 | 77 | 2.0 | 6.0 | 0.00 | 0.00 | 0.00 | 52 | 1021.7 |
| 20260509170603 | 69 | 77 | 2.0 | 6.0 | 0.00 | 0.00 | 0.00 | 52 | 1021.7 |
| 20260509170104 | 69 | 77 | 2.0 | 6.0 | 0.00 | 0.00 | 0.00 | 52 | 1021.7 |
| 20260509165604 | 69 | 77 | 2.0 | 6.0 | 0.00 | 0.00 | 0.00 | 52 | 1021.7 |
| 20260509165104 | 69 | 77 | 2.0 | 6.0 | 0.00 | 0.00 | 0.00 | 52 | 1021.7 |
| 20260509164603 | 69 | 77 | 2.0 | 6.0 | 0.00 | 0.00 | 0.00 | 52 | 1021.7 |
| 20260509164104 | 69 | 77 | 2.0 | 6.0 | 0.00 | 0.00 | 0.00 | 52 | 1021.7 |
| 20260509162603 | 69 | 77 | 2.0 | 6.0 | 0.00 | 0.00 | 0.00 | 52 | 1021.7 |
| 20260509162104 | 69 | 77 | 2.0 | 6.0 | 0.00 | 0.00 | 0.00 | 52 | 1021.7 |
| 20260509161603 | 69 | 77 | 2.0 | 6.0 | 0.00 | 0.00 | 0.00 | 52 | 1021.7 |
| 20260509161104 | 69 | 77 | 2.0 | 6.0 | 0.00 | 0.00 | 0.00 | 52 | 1021.7 |
| 20260509160603 | 69 | 77 | 2.0 | 6.0 | 0.00 | 0.00 | 0.00 | 52 | 1021.7 |
| 20260509160103 | 69 | 77 | 2.0 | 6.0 | 0.00 | 0.00 | 0.00 | 52 | 1021.7 |
| 20260509155103 | 69 | 77 | 2.0 | 6.0 | 0.00 | 0.00 | 0.00 | 52 | 1021.7 |
| 20260509154604 | 69 | 77 | 2.0 | 6.0 | 0.00 | 0.00 | 0.00 | 52 | 1021.7 |
| 20260509154104 | 69 | 77 | 2.0 | 6.0 | 0.00 | 0.00 | 0.00 | 52 | 1021.7 |
| 20260509153603 | 69 | 77 | 2.0 | 6.0 | 0.00 | 0.00 | 0.00 | 52 | 1021.7 |
| 20260509153103 | 69 | 77 | 2.0 | 6.0 | 0.00 | 0.00 | 0.00 | 52 | 1021.7 |
| 20260509152603 | 69 | 77 | 2.0 | 6.0 | 0.00 | 0.00 | 0.00 | 52 | 1021.7 |
| 20260509152104 | 69 | 77 | 2.0 | 6.0 | 0.00 | 0.00 | 0.00 | 52 | 1021.7 |
| 20260509151603 | 69 | 77 | 2.0 | 6.0 | 0.00 | 0.00 | 0.00 | 52 | 1021.7 |
| 20260509151104 | 69 | 77 | 2.0 | 6.0 | 0.00 | 0.00 | 0.00 | 52 | 1021.7 |
| 20260509150604 | 69 | 77 | 2.0 | 6.0 | 0.00 | 0.00 | 0.00 | 52 | 1021.7 |
| 20260509150105 | 69 | 77 | 2.0 | 6.0 | 0.00 | 0.00 | 0.00 | 52 | 1021.7 |
| 20260509145103 | 69 | 77 | 2.0 | 6.0 | 0.00 | 0.00 | 0.00 | 52 | 1021.7 |
| 20260509144603 | 69 | 77 | 2.0 | 6.0 | 0.00 | 0.00 | 0.00 | 52 | 1021.7 |
| 20260509144103 | 69 | 77 | 2.0 | 6.0 | 0.00 | 0.00 | 0.00 | 51 | 1021.7 |
| 20260509143604 | 68 | 77 | 2.0 | 6.0 | 0.00 | 0.00 | 0.00 | 53 | 1021.6 |
| 20260509143103 | 68 | 77 | 2.0 | 6.0 | 0.00 | 0.00 | 0.00 | 53 | 1021.6 |
| 20260509142604 | 67 | 77 | 2.0 | 6.0 | 0.00 | 0.00 | 0.00 | 54 | 1021.5 |
| 20260509142103 | 67 | 77 | 2.0 | 6.0 | 0.00 | 0.00 | 0.00 | 55 | 1021.6 |
| 20260509141604 | 66 | 77 | 2.0 | 6.0 | 0.00 | 0.00 | 0.00 | 55 | 1021.5 |
| 20260509141104 | 66 | 77 | 2.0 | 6.0 | 0.00 | 0.00 | 0.00 | 55 | 1021.5 |
| 20260509140103 | 65 | 77 | 2.0 | 6.0 | 0.00 | 0.00 | 0.00 | 58 | 1021.5 |
| 20260509135603 | 64 | 77 | 2.0 | 6.0 | 0.00 | 0.00 | 0.00 | 60 | 1021.6 |
| 20260509135104 | 63 | 77 | 2.0 | 6.0 | 0.00 | 0.00 | 0.00 | 60 | 1021.6 |
| 20260509134605 | 63 | 77 | 2.0 | 6.0 | 0.00 | 0.00 | 0.00 | 62 | 1021.7 |
| 20260509134103 | 63 | 77 | 2.0 | 6.0 | 0.00 | 0.00 | 0.00 | 61 | 1021.7 |
| 20260509133604 | 63 | 77 | 2.0 | 6.0 | 0.00 | 0.00 | 0.00 | 60 | 1021.6 |
| 20260509133104 | 62 | 77 | 2.0 | 6.0 | 0.00 | 0.00 | 0.00 | 61 | 1021.6 |
| 20260509132604 | 62 | 77 | 2.0 | 6.0 | 0.00 | 0.00 | 0.00 | 61 | 1021.6 |
| 20260509131604 | 61 | 77 | 2.0 | 6.0 | 0.00 | 0.00 | 0.00 | 62 | 1021.5 |
| 20260509130603 | 60 | 77 | 2.0 | 6.0 | 0.00 | 0.00 | 0.00 | 63 | 1021.5 |
| 20260509125604 | 60 | 77 | 2.0 | 6.0 | 0.00 | 0.00 | 0.00 | 63 | 1021.4 |
| 20260509125104 | 60 | 77 | 2.0 | 6.0 | 0.00 | 0.00 | 0.00 | 64 | 1021.4 |
| 20260509124604 | 60 | 77 | 2.0 | 6.0 | 0.00 | 0.00 | 0.00 | 63 | 1021.3 |
| 20260509124104 | 60 | 77 | 2.0 | 6.0 | 0.00 | 0.00 | 0.00 | 62 | 1021.3 |
| 20260509123603 | 60 | 77 | 2.0 | 6.0 | 0.00 | 0.00 | 0.00 | 62 | 1021.3 |
| 20260509123104 | 60 | 77 | 2.0 | 6.0 | 0.00 | 0.00 | 0.00 | 62 | 1021.2 |
| 20260509122604 | 60 | 77 | 2.0 | 6.0 | 0.00 | 0.00 | 0.00 | 61 | 1021.1 |
| 20260509122104 | 60 | 77 | 2.0 | 6.0 | 0.00 | 0.00 | 0.00 | 61 | 1021.1 |
| 20260509121603 | 60 | 77 | 2.0 | 6.0 | 0.00 | 0.00 | 0.00 | 62 | 1021.0 |
| 20260509121103 | 60 | 77 | 2.0 | 6.0 | 0.00 | 0.00 | 0.00 | 63 | 1021.0 |